TimeAKST,TemperatureF,Dew PointF,Humidity,Sea Level PressureIn,VisibilityMPH,Wind Direction,Wind SpeedMPH,Gust SpeedMPH,PrecipitationIn,Events,Conditions,WindDirDegrees,DateUTC
12:53 AM,27.0,12.9,56,29.28,10.0,NNW,8.1,-,N/A,,Mostly Cloudy,340,2013-02-27 09:53:00
1:53 AM,26.1,12.0,55,29.29,10.0,NNE,8.1,-,N/A,,Scattered Clouds,20,2013-02-27 10:53:00
3:53 AM,26.1,12.0,55,29.24,10.0,NNE,8.1,-,N/A,,Mostly Cloudy,20,2013-02-27 12:53:00
4:53 AM,26.1,12.9,58,29.24,10.0,Calm,Calm,-,N/A,,Mostly Cloudy,0,2013-02-27 13:53:00
5:53 AM,23.0,12.0,63,29.23,10.0,Calm,Calm,-,N/A,,Mostly Cloudy,0,2013-02-27 14:53:00
6:53 AM,19.9,10.9,68,29.22,10.0,Calm,Calm,-,N/A,,Scattered Clouds,0,2013-02-27 15:53:00
8:53 AM,19.0,10.9,71,29.21,10.0,East,3.5,-,N/A,,Scattered Clouds,100,2013-02-27 17:53:00
9:53 AM,19.9,14.0,78,29.22,10.0,Calm,Calm,-,N/A,,Overcast,0,2013-02-27 18:53:00
10:53 AM,26.1,15.1,63,29.23,10.0,SSE,3.5,-,N/A,,Mostly Cloudy,160,2013-02-27 19:53:00
11:53 AM,30.0,15.1,54,29.23,10.0,SSE,3.5,-,N/A,,Mostly Cloudy,150,2013-02-27 20:53:00
12:53 PM,32.0,16.0,52,29.24,10.0,Calm,Calm,-,N/A,,Mostly Cloudy,0,2013-02-27 21:53:00
1:53 PM,33.1,14.0,46,29.25,10.0,Calm,Calm,-,N/A,,Mostly Cloudy,0,2013-02-27 22:53:00
2:53 PM,34.0,14.0,44,29.24,10.0,NNW,4.6,-,N/A,,Mostly Cloudy,340,2013-02-27 23:53:00
3:53 PM,34.0,18.0,52,29.25,10.0,Calm,Calm,-,N/A,,Overcast,0,2013-02-28 00:53:00
4:53 PM,33.1,21.0,61,29.25,10.0,SSW,4.6,-,N/A,,Scattered Clouds,210,2013-02-28 01:53:00
5:53 PM,33.1,28.0,82,29.26,10.0,East,3.5,-,N/A,,Overcast,80,2013-02-28 02:53:00
6:53 PM,30.9,26.1,82,29.27,10.0,Calm,Calm,-,N/A,,Mostly Cloudy,0,2013-02-28 03:53:00
7:53 PM,30.0,24.1,79,29.27,10.0,Calm,Calm,-,N/A,,Scattered Clouds,0,2013-02-28 04:53:00
8:53 PM,28.9,25.0,85,29.28,10.0,Calm,Calm,-,N/A,,Scattered Clouds,0,2013-02-28 05:53:00
9:53 PM,30.0,24.1,79,29.29,10.0,ENE,5.8,-,N/A,,Overcast,60,2013-02-28 06:53:00
10:53 PM,30.0,23.0,75,29.29,10.0,North,4.6,-,N/A,,Overcast,350,2013-02-28 07:53:00
11:53 PM,28.9,21.0,72,29.29,10.0,Calm,Calm,-,N/A,,Overcast,0,2013-02-28 08:53:00